| time (UTC) | temp F | wind direction | speed MPH | gust MPH | rain 1hr in | rain 24hr in | rain mn in | humidity % | barometer mb |
| 20260504231500 | 76 | 13 | 10.0 | 19.0 | 0.00 | 0.55 | 0.55 | 48 | 1005.9 |
| 20260504231000 | 77 | 35 | 12.0 | 19.0 | 0.00 | 0.55 | 0.55 | 47 | 1006.0 |
| 20260504230500 | 77 | 51 | 13.0 | 19.0 | 0.00 | 0.55 | 0.55 | 43 | 1006.0 |
| 20260504230000 | 77 | 54 | 12.0 | 17.0 | 0.00 | 0.55 | 0.55 | 48 | 1006.0 |
| 20260504225500 | 77 | 23 | 12.0 | 20.0 | 0.00 | 0.55 | 0.55 | 48 | 1006.1 |
| 20260504225000 | 77 | 25 | 12.0 | 20.0 | 0.00 | 0.55 | 0.55 | 46 | 1006.2 |
| 20260504224500 | 77 | 20 | 17.0 | 19.0 | 0.00 | 0.55 | 0.55 | 47 | 1006.1 |
| 20260504224000 | 77 | 46 | 11.0 | 16.0 | 0.00 | 0.55 | 0.55 | 45 | 1006.1 |
| 20260504223501 | 78 | 23 | 10.0 | 21.0 | 0.00 | 0.55 | 0.55 | 45 | 1006.3 |
| 20260504222954 | 77 | 51 | 12.0 | 21.0 | 0.00 | 0.55 | 0.55 | 45 | 1006.3 |
| 20260504222454 | 78 | 5 | 12.0 | 20.0 | 0.00 | 0.55 | 0.55 | 45 | 1006.2 |
| 20260504221954 | 78 | 13 | 13.0 | 20.0 | 0.00 | 0.55 | 0.55 | 44 | 1006.3 |
| 20260504221455 | 77 | 33 | 13.0 | 20.0 | 0.00 | 0.55 | 0.55 | 46 | 1006.4 |
| 20260504220955 | 77 | 39 | 16.0 | 19.0 | 0.00 | 0.55 | 0.55 | 46 | 1006.4 |
| 20260504220454 | 78 | 22 | 12.0 | 17.0 | 0.00 | 0.55 | 0.55 | 49 | 1006.5 |
| 20260504215954 | 78 | 47 | 8.0 | 19.0 | 0.00 | 0.55 | 0.55 | 50 | 1006.5 |
| 20260504215454 | 78 | 59 | 11.0 | 19.0 | 0.00 | 0.55 | 0.55 | 43 | 1006.5 |
| 20260504214954 | 78 | 20 | 9.0 | 22.0 | 0.00 | 0.55 | 0.55 | 48 | 1006.6 |
| 20260504214454 | 78 | 16 | 11.0 | 22.0 | 0.00 | 0.55 | 0.55 | 45 | 1006.6 |
| 20260504213954 | 78 | 28 | 11.0 | 20.0 | 0.00 | 0.55 | 0.55 | 48 | 1006.8 |
| 20260504213454 | 78 | 32 | 18.0 | 20.0 | 0.00 | 0.55 | 0.55 | 50 | 1006.7 |
| 20260504212954 | 78 | 52 | 10.0 | 19.0 | 0.00 | 0.55 | 0.55 | 45 | 1006.8 |
| 20260504212454 | 78 | 50 | 12.0 | 24.0 | 0.00 | 0.55 | 0.55 | 45 | 1006.8 |
| 20260504211954 | 78 | 59 | 14.0 | 24.0 | 0.00 | 0.55 | 0.55 | 39 | 1006.9 |
| 20260504211454 | 78 | 54 | 16.0 | 20.0 | 0.00 | 0.55 | 0.55 | 46 | 1006.9 |
| 20260504210954 | 78 | 45 | 19.0 | 20.0 | 0.00 | 0.55 | 0.55 | 43 | 1007.0 |
| 20260504210455 | 77 | 27 | 12.0 | 19.0 | 0.00 | 0.55 | 0.55 | 46 | 1007.1 |
| 20260504205954 | 78 | 32 | 12.0 | 20.0 | 0.00 | 0.55 | 0.55 | 45 | 1007.3 |
| 20260504205454 | 78 | 51 | 12.0 | 21.0 | 0.00 | 0.55 | 0.55 | 44 | 1007.2 |
| 20260504204954 | 78 | 25 | 10.0 | 21.0 | 0.00 | 0.55 | 0.55 | 45 | 1007.3 |
| 20260504204455 | 78 | 11 | 11.0 | 19.0 | 0.00 | 0.55 | 0.55 | 46 | 1007.4 |
| 20260504203954 | 78 | 36 | 13.0 | 21.0 | 0.00 | 0.55 | 0.55 | 43 | 1007.5 |
| 20260504203454 | 78 | 21 | 8.0 | 21.0 | 0.00 | 0.55 | 0.55 | 46 | 1007.6 |
| 20260504202954 | 78 | 23 | 11.0 | 21.0 | 0.00 | 0.55 | 0.55 | 43 | 1007.7 |
| 20260504202454 | 78 | 35 | 15.0 | 21.0 | 0.00 | 0.55 | 0.55 | 46 | 1007.9 |
| 20260504201954 | 79 | 70 | 15.0 | 20.0 | 0.00 | 0.55 | 0.55 | 40 | 1007.9 |
| 20260504201454 | 78 | 57 | 13.0 | 21.0 | 0.00 | 0.55 | 0.55 | 42 | 1008.0 |
| 20260504200954 | 78 | 47 | 16.0 | 21.0 | 0.00 | 0.55 | 0.55 | 43 | 1008.0 |
| 20260504200454 | 78 | 42 | 21.0 | 25.0 | 0.00 | 0.55 | 0.55 | 48 | 1008.1 |
| 20260504195954 | 78 | 59 | 12.0 | 26.0 | 0.00 | 0.55 | 0.55 | 42 | 1008.1 |
| 20260504195454 | 78 | 39 | 11.0 | 26.0 | 0.00 | 0.55 | 0.55 | 46 | 1008.1 |
| 20260504194954 | 78 | 16 | 16.0 | 23.0 | 0.00 | 0.55 | 0.55 | 46 | 1008.3 |
| 20260504194455 | 78 | 42 | 13.0 | 23.0 | 0.00 | 0.55 | 0.55 | 48 | 1008.3 |
| 20260504193954 | 78 | 33 | 10.0 | 25.0 | 0.00 | 0.55 | 0.55 | 42 | 1008.4 |
| 20260504193454 | 78 | 35 | 15.0 | 25.0 | 0.00 | 0.55 | 0.55 | 44 | 1008.5 |
| 20260504192954 | 78 | 21 | 17.0 | 20.0 | 0.00 | 0.55 | 0.55 | 45 | 1008.6 |
| 20260504192454 | 78 | 73 | 9.0 | 23.0 | 0.00 | 0.55 | 0.55 | 41 | 1008.6 |
| 20260504191954 | 78 | 45 | 13.0 | 23.0 | 0.00 | 0.55 | 0.55 | 43 | 1008.7 |
| 20260504191454 | 78 | 21 | 11.0 | 18.0 | 0.00 | 0.55 | 0.55 | 44 | 1008.8 |
| 20260504190954 | 78 | 38 | 10.0 | 22.0 | 0.00 | 0.55 | 0.55 | 46 | 1008.9 |
| 20260504190454 | 78 | 57 | 11.0 | 22.0 | 0.00 | 0.55 | 0.55 | 42 | 1008.9 |
| 20260504185955 | 78 | 55 | 11.0 | 20.0 | 0.00 | 0.55 | 0.55 | 44 | 1008.9 |
| 20260504185454 | 77 | 49 | 12.0 | 24.0 | 0.00 | 0.55 | 0.55 | 48 | 1008.9 |
| 20260504184954 | 77 | 46 | 12.0 | 24.0 | 0.00 | 0.55 | 0.55 | 49 | 1009.1 |
| 20260504184006 | 77 | 47 | 13.0 | 20.0 | 0.00 | 0.55 | 0.55 | 41 | 1009.2 |
| 20260504183500 | 77 | 80 | 7.0 | 21.0 | 0.00 | 0.55 | 0.55 | 45 | 1009.2 |
| 20260504183000 | 77 | 41 | 17.0 | 21.0 | 0.00 | 0.55 | 0.55 | 46 | 1009.3 |
| 20260504182500 | 76 | 42 | 13.0 | 21.0 | 0.54 | 0.55 | 0.55 | 46 | 1009.4 |
| 20260504182000 | 76 | 27 | 17.0 | 19.0 | 0.54 | 0.55 | 0.55 | 50 | 1009.3 |
| 20260504181500 | 77 | 36 | 15.0 | 20.0 | 0.55 | 0.55 | 0.55 | 52 | 1009.5 |
| 20260504181000 | 77 | 44 | 14.0 | 23.0 | 0.55 | 0.55 | 0.55 | 44 | 1009.5 |
| 20260504180500 | 76 | 43 | 18.0 | 23.0 | 0.55 | 0.55 | 0.55 | 47 | 1009.5 |
| 20260504180000 | 78 | 47 | 9.0 | 18.0 | 0.55 | 0.00 | 0.55 | 43 | 1009.6 |
| 20260504175501 | 77 | 63 | 12.0 | 24.0 | 0.55 | 0.00 | 0.55 | 42 | 1009.6 |
| 20260504174954 | 76 | 59 | 13.0 | 24.0 | 0.55 | 0.00 | 0.55 | 41 | 1009.7 |
| 20260504174455 | 77 | 39 | 12.0 | 23.0 | 0.55 | 0.00 | 0.55 | 44 | 1009.9 |
| 20260504173507 | 76 | 55 | 16.0 | 20.0 | 0.55 | 0.00 | 0.55 | 44 | 1010.0 |
| 20260504173006 | 77 | 93 | 9.0 | 24.0 | 0.54 | 0.00 | 0.55 | 47 | 1010.1 |
| 20260504172500 | 75 | 236 | 14.0 | 24.0 | 0.00 | 0.00 | 0.02 | 51 | 1010.0 |
| 20260504172000 | 75 | 235 | 17.0 | 18.0 | 0.00 | 0.00 | 0.00 | 49 | 1010.1 |
| 20260504171500 | 76 | 311 | 13.0 | 24.0 | 0.00 | 0.00 | 0.00 | 48 | 1010.1 |
| 20260504171000 | 75 | 255 | 9.0 | 24.0 | 0.00 | 0.00 | 0.00 | 53 | 1010.3 |
| 20260504170500 | 75 | 259 | 13.0 | 24.0 | 0.00 | 0.00 | 0.00 | 47 | 1010.3 |
| 20260504151000 | 70 | 236 | 13.0 | 16.0 | 0.00 | 0.00 | 0.00 | 60 | 1010.7 |
| 20260504150500 | 70 | 253 | 7.0 | 13.0 | 0.00 | 0.00 | 0.00 | 63 | 1010.7 |
| 20260504141000 | 67 | 260 | 8.0 | 13.0 | 0.00 | 0.00 | 0.00 | 63 | 1010.8 |
| 20260504140500 | 67 | 238 | 8.0 | 13.0 | 0.00 | 0.00 | 0.00 | 65 | 1010.9 |
| 20260504130501 | 63 | 264 | 8.0 | 13.0 | 0.00 | 0.00 | 0.00 | 70 | 1010.4 |
| 20260504110500 | 58 | 221 | 6.0 | 8.0 | 0.00 | 0.00 | 0.00 | 78 | 1009.4 |
| 20260504100500 | 60 | 231 | 5.0 | 7.0 | 0.00 | 0.00 | 0.00 | 76 | 1009.4 |
| 20260504082000 | 62 | 237 | 5.0 | 8.0 | 0.00 | 0.00 | 0.00 | 72 | 1009.8 |
| 20260504081500 | 61 | 252 | 4.0 | 7.0 | 0.00 | 0.00 | 0.00 | 73 | 1009.8 |
| 20260504081000 | 61 | 238 | 4.0 | 7.0 | 0.00 | 0.00 | 0.00 | 73 | 1009.8 |
| 20260504080500 | 61 | 238 | 4.0 | 6.0 | 0.00 | 0.00 | 0.00 | 74 | 1009.8 |
| 20260504050500 | 62 | 252 | 4.0 | 6.0 | 0.00 | 0.00 | 0.00 | 75 | 1010.8 |
| 20260504050000 | 62 | 261 | 4.0 | 7.0 | 0.00 | 0.00 | 0.00 | 74 | 1010.8 |
| 20260504045500 | 63 | 257 | 3.0 | 7.0 | 0.00 | 0.00 | 0.00 | 72 | 1010.8 |
| 20260504045000 | 64 | 234 | 4.0 | 8.0 | 0.00 | 0.00 | 0.00 | 68 | 1010.8 |
| 20260504044500 | 64 | 253 | 2.0 | 8.0 | 0.00 | 0.00 | 0.00 | 68 | 1010.9 |
| 20260504044000 | 64 | 255 | 4.0 | 9.0 | 0.00 | 0.00 | 0.00 | 68 | 1011.0 |
| 20260504043500 | 65 | 224 | 5.0 | 9.0 | 0.00 | 0.00 | 0.00 | 66 | 1011.0 |
| 20260504043000 | 64 | 223 | 5.0 | 8.0 | 0.00 | 0.00 | 0.00 | 67 | 1011.0 |
| 20260504042500 | 64 | 242 | 4.0 | 8.0 | 0.00 | 0.00 | 0.00 | 68 | 1011.1 |
| 20260504042000 | 64 | 237 | 5.0 | 7.0 | 0.00 | 0.00 | 0.00 | 67 | 1011.1 |
| 20260504041500 | 64 | 228 | 6.0 | 8.0 | 0.00 | 0.00 | 0.00 | 70 | 1011.1 |
| 20260504041000 | 65 | 239 | 3.0 | 8.0 | 0.00 | 0.00 | 0.00 | 67 | 1011.2 |
| 20260504040500 | 65 | 225 | 5.0 | 7.0 | 0.00 | 0.00 | 0.00 | 64 | 1011.2 |
| 20260504040000 | 65 | 229 | 7.0 | 7.0 | 0.00 | 0.00 | 0.00 | 65 | 1011.2 |
| 20260504035500 | 64 | 246 | 4.0 | 6.0 | 0.00 | 0.00 | 0.00 | 67 | 1011.2 |
| 20260504035000 | 64 | 236 | 4.0 | 5.0 | 0.00 | 0.00 | 0.00 | 67 | 1011.2 |
| 20260504034500 | 64 | 238 | 3.0 | 4.0 | 0.00 | 0.00 | 0.00 | 71 | 1011.2 |
| 20260504034000 | 65 | 229 | 2.0 | 4.0 | 0.00 | 0.00 | 0.00 | 67 | 1011.2 |
| 20260504033500 | 65 | 211 | 2.0 | 5.0 | 0.00 | 0.00 | 0.00 | 67 | 1011.2 |
| 20260504033000 | 65 | 219 | 4.0 | 5.0 | 0.00 | 0.00 | 0.00 | 68 | 1011.2 |
| 20260504032500 | 64 | 238 | 4.0 | 5.0 | 0.00 | 0.00 | 0.00 | 72 | 1011.2 |
| 20260504032000 | 64 | 249 | 3.0 | 4.0 | 0.00 | 0.00 | 0.00 | 73 | 1011.2 |
| 20260504031500 | 65 | 262 | 2.0 | 4.0 | 0.00 | 0.00 | 0.00 | 71 | 1011.2 |
| 20260504031000 | 65 | 233 | 2.0 | 4.0 | 0.00 | 0.00 | 0.00 | 69 | 1011.2 |
| 20260504030500 | 64 | 237 | 2.0 | 3.0 | 0.00 | 0.00 | 0.00 | 72 | 1011.2 |
| 20260504030000 | 66 | 237 | 1.0 | 3.0 | 0.00 | 0.00 | 0.00 | 69 | 1011.2 |
| 20260504025500 | 66 | 210 | 2.0 | 3.0 | 0.00 | 0.00 | 0.00 | 65 | 1011.1 |
| 20260504025000 | 65 | 191 | 1.0 | 3.0 | 0.00 | 0.00 | 0.00 | 67 | 1011.1 |
| 20260504024500 | 65 | 192 | 1.0 | 2.0 | 0.00 | 0.00 | 0.00 | 69 | 1011.1 |
| 20260504024000 | 65 | 175 | 2.0 | 2.0 | 0.00 | 0.00 | 0.00 | 69 | 1011.2 |
| 20260504023500 | 65 | 199 | 0.0 | 2.0 | 0.00 | 0.00 | 0.00 | 71 | 1011.1 |
| 20260504023000 | 65 | 242 | 2.0 | 2.0 | 0.00 | 0.00 | 0.00 | 73 | 1011.2 |
| 20260504022500 | 65 | 249 | 2.0 | 2.0 | 0.00 | 0.00 | 0.00 | 72 | 1011.1 |
| 20260504022000 | 65 | 285 | 0.0 | 1.0 | 0.00 | 0.00 | 0.00 | 72 | 1011.1 |
| 20260504021500 | 65 | 236 | 1.0 | 1.0 | 0.00 | 0.00 | 0.00 | 71 | 1011.1 |
| 20260504021000 | 64 | 260 | 1.0 | 2.0 | 0.00 | 0.00 | 0.00 | 73 | 1011.1 |
| 20260504020500 | 65 | 256 | 1.0 | 2.0 | 0.00 | 0.00 | 0.00 | 74 | 1011.1 |
| 20260504020000 | 65 | 164 | 1.0 | 2.0 | 0.00 | 0.00 | 0.00 | 71 | 1011.1 |
| 20260504015500 | 66 | 185 | 1.0 | 1.0 | 0.00 | 0.00 | 0.00 | 70 | 1011.1 |
| 20260504015000 | 66 | 221 | 1.0 | 1.0 | 0.00 | 0.00 | 0.00 | 68 | 1011.1 |
| 20260504014500 | 66 | 243 | 1.0 | 1.0 | 0.00 | 0.00 | 0.00 | 70 | 1011.0 |
| 20260504014000 | 66 | 219 | 0.0 | 2.0 | 0.00 | 0.00 | 0.00 | 70 | 1011.1 |
| 20260504013500 | 66 | 218 | 1.0 | 2.0 | 0.00 | 0.00 | 0.00 | 68 | 1011.0 |
| 20260504013000 | 66 | 213 | 1.0 | 2.0 | 0.00 | 0.00 | 0.00 | 74 | 1011.0 |
| 20260504012500 | 67 | 245 | 2.0 | 2.0 | 0.00 | 0.00 | 0.00 | 72 | 1011.0 |
| 20260504012000 | 67 | 253 | 1.0 | 2.0 | 0.00 | 0.00 | 0.00 | 68 | 1011.0 |
| 20260504011500 | 67 | 187 | 2.0 | 3.0 | 0.00 | 0.00 | 0.00 | 67 | 1011.0 |
| 20260504011000 | 68 | 227 | 2.0 | 3.0 | 0.00 | 0.00 | 0.00 | 73 | 1011.1 |
| 20260504010500 | 68 | 217 | 2.0 | 3.0 | 0.00 | 0.00 | 0.00 | 74 | 1011.1 |
| 20260504010000 | 69 | 222 | 2.0 | 3.0 | 0.00 | 0.00 | 0.00 | 71 | 1011.1 |
| 20260504005501 | 71 | 238 | 3.0 | 3.0 | 0.00 | 0.00 | 0.00 | 59 | 1011.1 |
| 20260504005000 | 71 | 196 | 2.0 | 3.0 | 0.00 | 0.00 | 0.00 | 59 | 1011.1 |
| 20260504004500 | 71 | 193 | 2.0 | 4.0 | 0.00 | 0.00 | 0.00 | 62 | 1011.2 |
| 20260504004000 | 72 | 197 | 2.0 | 4.0 | 0.00 | 0.00 | 0.00 | 61 | 1011.3 |
| 20260504003500 | 72 | 222 | 3.0 | 4.0 | 0.00 | 0.00 | 0.00 | 58 | 1011.3 |
| 20260504003000 | 73 | 233 | 3.0 | 4.0 | 0.00 | 0.00 | 0.00 | 57 | 1011.4 |
| 20260504002506 | 73 | 231 | 4.0 | 5.0 | 0.00 | 0.00 | 0.00 | 54 | 1011.5 |
| 20260504001501 | 74 | 249 | 5.0 | 6.0 | 0.00 | 0.00 | 0.00 | 51 | 1011.6 |
| 20260504001000 | 75 | 245 | 5.0 | 6.0 | 0.00 | 0.00 | 0.00 | 50 | 1011.6 |
| 20260504000500 | 75 | 243 | 3.0 | 8.0 | 0.00 | 0.00 | 0.00 | 54 | 1011.6 |
| 20260504000000 | 76 | 240 | 4.0 | 8.0 | 0.00 | 0.00 | 0.00 | 48 | 1011.6 |
| 20260503235500 | 76 | 234 | 5.0 | 6.0 | 0.00 | 0.00 | 0.00 | 50 | 1011.5 |
| 20260503235000 | 76 | 232 | 5.0 | 8.0 | 0.00 | 0.00 | 0.00 | 48 | 1011.5 |
| 20260503234500 | 76 | 241 | 3.0 | 10.0 | 0.00 | 0.00 | 0.00 | 49 | 1011.5 |
| 20260503234000 | 76 | 232 | 8.0 | 12.0 | 0.00 | 0.00 | 0.00 | 49 | 1011.5 |
| 20260503233500 | 77 | 236 | 5.0 | 12.0 | 0.00 | 0.00 | 0.00 | 44 | 1011.5 |
| 20260503233000 | 77 | 214 | 7.0 | 12.0 | 0.00 | 0.00 | 0.00 | 45 | 1011.6 |
| 20260503232500 | 77 | 220 | 7.0 | 12.0 | 0.00 | 0.00 | 0.00 | 40 | 1011.7 |
| 20260503232000 | 77 | 249 | 4.0 | 9.0 | 0.00 | 0.00 | 0.00 | 43 | 1011.8 |